www.pogodaiklimat.ru

Погода и климат >> Архив погоды >> Россия >> Приморский край >> Анучино


ПОГОДА в Анучино

  • Прогноз погоды в Анучино
  • Монитор погоды в Анучино

АРХИВ ПОГОДЫ в Анучино

Время (UTC), дата Ветер
(напр.,м/с)
 
Видим.   Явления Облачность Т
(С)
Тd
(С)
f
(%)
Тe
(С)
Тes
(С)
Комфортность P
(гПа)
Po
(гПа)
Тmin
(С)
Tmax
(С)
R
(мм)
R24
(мм)
S
(см)
09 16.07 ЮЗ 1 50 км {ливн. осадки} 9/9 600 м
[Sc diur, vesp]
+22.1 +18.0 78 +27 +27 душно 1011.7 990.2 +23.8 0.9
12 16.07 ЮЗ 1 50 км {ливн. осадки} 3/3 600 м
[Sc diur, vesp]
+17.8 +15.7 88 +19 +19 1012.8 991.0
15 16.07 штиль 0 50 км 4/0
[Ci fib]
+15.5 +14.6 94 +15 +15 1013.0 991.0
18 16.07 ЮЗ 1 50 км 8/8 200 м
[St]
+14.2 +13.7 97 +14 +14 1012.8 990.7
21 16.07 ЮЗ 2 50 км {туман} 10/10 300 м
[St]
+14.8 +14.6 99 +14 +14 1012.4 990.4 +13.8
00 17.07 ЮЗ 2 50 км {туман} 10/10 600 м
[Sc]
+20.8 +16.0 74 +25 +25 комфорт 1011.0 989.4
03 17.07 ЮЗ 3 50 км 9/9 600 м
[Cu Sc]
+23.8 +16.4 63 +27 +29 жарко 1010.1 988.8
06 17.07 ЮЗ 3 50 км 10/8 600 м
[Cu med, cong Ac cast]
+25.2 +17.5 62 +29 +30 душно 1008.6 987.4
09 17.07 ЮЗ 2 50 км 10/10 600 м
[Sc]
+22.4 +17.0 72 +27 +27 душно 1009.0 987.6 +25.5
12 17.07 ЮЗ 2 50 км 10/10 600 м
[Sc]
+20.6 +16.2 76 +24 +24 комфорт 1009.8 988.2
15 17.07 ЮЗ 2 50 км 10/10 600 м
[Sc]
+19.9 +16.1 79 +23 +23 комфорт 1010.0 988.4
18 17.07 ЮЗ 1 50 км 10/10 600 м
[Sc]
+19.6 +16.5 82 +23 +23 комфорт 1009.3 987.7
21 17.07 ЮЗ 1 50 км 10/8 600 м
[Sc Ac cast]
+19.9 +17.3 85 +24 +24 комфорт 1009.0 987.5 +19.2
00 18.07 ЮЗ 3 50 км 10/5 600 м
[Sc Ac und]
+23.3 +17.8 71 +29 +30 душно 1008.2 986.9
03 18.07 Ю 1 50 км 9/9 600 м
[Cu med, cong]
+25.4 +19.1 68 +30 +33 душно 1007.6 986.5
06 18.07 Ю 2 50 км 10/4 600 м
[Cu med, cong Cs]
+26.4 +18.8 63 +31 +37 душно 1005.7 984.7
09 18.07 ЮЗ 3 50 км 6/3 600 м
[Cu hum Cc]
+24.9 +18.5 68 +30 +30 душно 1005.3 984.2 +27.8
12 18.07 Ю 1 50 км 8/8 600 м
[Sc diur, vesp]
+22.2 +18.5 80 +27 +27 душно 1007.3 986.0
15 18.07 З 1 50 км 3/0
[Ac trans]
+20.2 +17.7 86 +25 +25 комфорт 1006.7 985.2
18 18.07 З 2 50 км 10/10 600 м
[Sc]
+19.1 +17.7 92 +21 +21 комфорт 1006.8 985.2
21 18.07 ЮЗ 1 50 км 10/10 600 м
[Sc]
+21.1 +18.1 83 +25 +25 комфорт 1007.3 985.9 +19.0
00 19.07 ЮЗ 2 50 км 10/10 600 м
[Sc diur, vesp]
+24.0 +19.2 75 +29 +29 душно 1007.4 986.2
03 19.07 З 2 50 км 10/8 600 м
[Cu med, cong Ci sp]
+25.9 +19.3 67 +31 +34 очень
душно
1007.3 986.2
06 19.07 Ю 2 50 км 4/4 600 м
[Cu med, cong]
+28.7 +17.3 50 +33 +40 очень
душно
1006.1 985.2
09 19.07 З 1 50 км 3/3 600 м
[Cu hum Ci sp]
+29.4 +17.4 48 +33 +35 душно 1006.5 985.7 +29.8
12 19.07 ЮЗ 1 50 км ясно +21.9 +19.6 87 +27 +27 душно 1008.9 987.5
15 19.07 ЮЗ 1 50 км 3/0
[Ci sp]
+19.9 +18.3 90 +24 +24 комфорт 1010.2 988.6
18 19.07 Ю 1 50 км 4/0
[Ci sp]
+17.7 +17.2 97 +19 +19 1010.3 988.5
21 19.07 Ю 1 50 км 8/3 300 м
[St Cs]
+17.2 +16.9 98 +18 +19 1011.5 989.7 +16.6
00 20.07 З 1 50 км ясно +25.2 +19.2 69 +30 +43 душно 1010.9 989.7
03 20.07 З 1 50 км 1/1 600 м
[Cu med, cong]
+32.2 +17.5 42 +36 +56 опасность
солнечного
удара
1009.3 988.6
06 20.07 З 3 50 км 3/3 600 м
[Cu med, cong]
+33.0 +17.6 40 +37 +44 очень
душно
1008.2 987.6
09 20.07 ЮЗ 2 50 км ясно +30.3 +19.4 52 +36 +38 очень
душно
1008.8 988.0 +33.4
12 20.07 ЮЗ 1 50 км ясно +24.3 +19.1 73 +29 +29 душно 1011.0 989.7
15 20.07 З 1 50 км 6/0
[Ac cast]
+22.7 +19.4 82 +29 +29 очень
душно
1010.8 989.5
18 20.07 ЮЗ 1 50 км 3/0
[Ac cast]
+20.7 +19.4 92 +26 +26 душно 1011.0 989.5
21 20.07 З 1 50 км 4/4 600 м
[Sc]
+22.0 +19.7 87 +28 +28 душно 1010.7 989.3 +20.4
00 21.07 Ю 2 50 км 8/8 600 м
[Cu med, cong]
+27.6 +20.1 64 +34 +36 очень
душно
1010.0 989.0
03 21.07 Ю 2 50 км 8/6 600 м
[Cu med, cong Ac trans]
+31.2 +19.7 50 +37 +42 очень
душно
1008.5 987.7
06 21.07 ЮВ 2 50 км 8/8 600 м
[Cu med, cong]
+29.3 +19.8 57 +36 +38 очень
душно
1007.4 986.6
09 21.07 В 2 50 км 9/3 600 м
[Sc diur, vesp Ac As]
+26.6 +18.5 61 +31 +32 душно 1006.5 985.5 +31.2
12 21.07 ЮВ 1 10 км слаб. ливневой дождь 10/10 600 м
[Cb cap]
+21.6 +20.2 92 +27 +27 душно 1006.4 985.0
15 21.07 штиль 0 10 км слаб. ливневой дождь 10/10 600 м
[Cb cap]
+20.7 +19.8 95 +25 +25 комфорт 1004.0 982.7
18 21.07 В 1 50 км {ливн. осадки} 10/10 600 м
[Sc diur, vesp]
+20.3 +19.3 94 +25 +25 комфорт 1001.2 979.8
21 21.07 СВ 1 50 км {ливн. осадки} 10/10 600 м
[Sc diur, vesp]
+20.4 +18.8 91 +25 +25 комфорт 999.4 978.1 +20.1 5
00 22.07 С 2 50 км {ливн. осадки} 10/10 600 м
[Sc diur, vesp]
+22.5 +20.1 86 +29 +29 очень
душно
998.3 977.2
03 22.07 Ю 1 50 км 10/10 600 м
[Sc diur, vesp]
+27.5 +20.2 64 +34 +34 очень
душно
997.1 976.3
06 22.07 ЮЗ 3 50 км 8/6 600 м
[Cu med, cong Ac trans]
+28.9 +19.7 58 +35 +38 очень
душно
997.5 976.8
09 22.07 Ю 1 50 км 9/9 600 м
[Sc diur, vesp]
+26.4 +19.7 67 +32 +32 очень
душно
998.5 977.6 +29.0 0.3
12 22.07 ЮВ 1 50 км 8/8 600 м
[Sc diur, vesp]
+23.0 +20.9 88 +30 +30 очень
душно
1000.5 979.4
15 22.07 штиль 0 50 км 10/10 600 м
[Sc diur, vesp]
+22.0 +20.8 93 +28 +28 душно 1001.1 979.8
18 22.07 штиль 0 10 км слаб. ливневой дождь 10/10 300 м
[Cb cap]
+21.5 +20.8 96 +27 +27 душно 1001.0 979.8
21 22.07 ЮЗ 1 50 км {ливн. осадки} 10/10 300 м
[St]
+21.2 +20.4 95 +26 +26 душно 1002.0 980.7 +21.2 0.0
00 23.07 Ю 1 50 км {ливн. осадки} 4/4 600 м
[Cu med, cong]
+25.7 +20.1 71 +32 +39 очень
душно
1001.4 980.4
03 23.07 СВ 1 50 км 6/6 600 м
[Cu med, cong]
+29.2 +20.5 59 +36 +45 очень
душно
1000.4 979.7

 

Местоположение метеостанции Анучино (Приморский край, Россия): широта 43.97 долгота 133.00 высота над уровнем моря 188 м.

В архиве по умолчанию представлена погода в Анучино за последнюю неделю. Архивные данные за месяц целиком и за предыдущие месяцы, начиная с января 2011 года, Вы можете получить, выбрав интересующий диапазон дат из раскрывающегося списка и нажав кнопку "Ввод!".


*Определитесь, кто Вы:
робот инопланетянин человек

Внимание! Время в таблицах - всемирное. Для получения местного времени необходимо прибавить поправку, которая равна 10 ч.

Смотрите также архив погоды в соседних городах и на ближайших метеорологических станциях:

Погода в Чугуевке (Приморский край, Россия) (67 км)
Погода в Многоудобном (Приморский край, Россия) (70 км)
Погода в Спасск-Дальнем (Приморский край, Россия) (75 км)
Погода в Тимирязевском (Приморский край, Россия) (89 км)
Погода в Лазо (Приморский край, Россия) (90 км)
Погода в Партизанске (Приморский край, Россия) (91 км)
Погода в Свиягино (Приморский край, Россия) (92 км)
Погода в Хороле (Приморский край, Россия) (95 км)
Погода в Астраханке (Приморский край, Россия) (115 км)
Погода в Лучегорске (Приморский край, Россия) (123 км)

Пояснения к столбцам:

Ветер - указаны скорость ветра в м/с - средняя за 10 мин, порывы в срок и между сроками (в фигурных скобках) и направление, откуда дует ветер: С - северный, СВ - северо-восточный, В - восточный, ЮВ - юго-восточный, Ю - южный, ЮЗ - юго-западный, З - западный, СЗ - северо-западный.
Видимость - горизонтальная дальность видимости в метрах или километрах. При видимости от 1 до 10 км при отсутствии осадков обычно наблюдается дымка, при ухудшении видимости до 1 км и менее - туман. В сухую погоду видимость может ухудшаться дымом, пылью или мглою.
Явления - указаны атмосферные явления, наблюдавшиеся в срок или в последний час перед сроком; фигурными скобками обозначены явления, наблюдавшиеся между сроками (за 1-3 часа до срока); квадратными скобками обозначены град или гололедные отложения с указанием их диаметра в мм.
Облачность - указаны через наклонную черту общая и нижняя облачность в баллах и высота нижней границы облаков в метрах; квадратными скобками обозначены формы облаков: Ci - перистые, Cs - перисто-слоистые, Cc - перисто-кучевые, Ac - высококучевые, As - высокослоистые, Sc - слоисто-кучевые, Ns - слоисто-дождевые, Cu - кучевые, Cb - кучево-дождевые. Подробнее классификацию облаков см. в Атласе облаков (PDF).
T - Температура воздуха - температура, измеренная на высоте 2 м над землей.
Td - Температура точки росы - температура, при понижении до которой содержащийся в воздухе водяной пар достигнет насыщения.
f - Относительная влажность воздуха - влажноcть воздуха, измеренная на высоте 2 м над землей.
Te - Эффективная температура - температура, которую ощущает одетый по сезону человек в тени. Характеристика душности погоды. При расчете учитывается влияние влажности воздуха и скорости ветра на теплоощущения человека.
Tes - Эффективная температура на солнце - температура, которую ощущает человек, с поправкой на солнечный нагрев. Характеристика знойности погоды. Зависит от высоты солнца над горизонтом, облачности и скорости ветра. Ночью, в пасмурную погоду, а также при ветре 12 м/с и более поправка равна нулю.
P - Атмосферное давление - приведенное к уровню моря атмосферное давление.
Po - Атмосферное давление - измеренное на уровне метеостанции атмосферное давление.
Tmin - Минимальная температура - минимум температуры воздуха на высоте 2 м над землей.
Tmax - Максимальная температура - максимум температуры воздуха на высоте 2 м над землей.
R - Количество осадков - Количество выпавших осадков за период времени, мм. При наведении курсора мыши на число - период времени, за который выпало указанное количество осадков.
R24 - Количество осадков - Количество выпавших осадков за 24 часа, мм.
S - Снежный покров - Высота снежного покрова, см. При наведении курсора мыши на число - состояние снежного покрова и степень покрытия местности в баллах.